Fremont, MI

12:29 PM EDT on October 23, 2019 (GMT -0400)
Fremont

Weather History for KFFX - August, 2019

Change the Weather History Date:

Tuesday, August 6, 2019

  Actual Average (KMKG) Record (KMKG)
Temperature  
Mean Temperature 72 °F -  
Max Temperature 80 °F 78 °F 97 °F (1947)
Min Temperature 62 °F 59 °F 44 °F (1948)
Cooling Degree Days 6    
Growing Degree Days 22 (Base 50)    
Moisture  
Dew Point 65 °F    
Average Humidity 87    
Maximum Humidity 100    
Minimum Humidity 49    
Precipitation  
Precipitation 0.00 in - - ()
Sea Level Pressure  
Sea Level Pressure 29.80 in    
Wind  
Wind Speed 3 mph (NW)    
Max Wind Speed 13 mph    
Max Gust Speed 17 mph    
Visibility 9 miles    
Events Rain    
Averages and records for this station are not official NWS values.
T = Trace of Precipitation, MM = Missing Value Source: NWS Daily Summary

Daily Weather History Graph

Daily Weather History Graph

Search for Another Location

Airport or City:

Astronomy

Aug. 06, 2019 Rise Set
Actual Time 6:38 AM EDT 9:00 PM EDT
Civil Twilight 6:06 AM EDT 9:32 PM EDT
Nautical Twilight 5:27 AM EDT 10:11 PM EDT
Astronomical Twilight 4:42 AM EDT 10:55 PM EDT
Moon 1:14 PM EDT (8/6) 12:03 AM EDT (8/6)
Length of Visible Light 15h 25m
Length of Day
14h 21m
Waxing Crescent, 38% of the Moon is Illuminated
Aug 6
Waxing Crescent
Aug 7
First Quarter
Aug 15
Full
Aug 23
Last Quarter
Aug 30
New

Hourly Weather History & Observations

Time (EDT) Temp. Heat Index Dew Point Humidity Pressure Visibility Wind Dir Wind Speed Gust Speed Precip Events Conditions
12:19 AM 66.4 °F - 66.4 °F 100% 29.81 in 10.0 mi SE 3.5 mph - N/A Rain Rain
12:36 AM 65.8 °F - 65.8 °F 100% 29.81 in 3.0 mi South 4.6 mph - N/A Rain Heavy Rain
12:55 AM 65.7 °F - 65.7 °F 100% 29.80 in 7.0 mi SSE 3.5 mph - N/A Rain Rain
12:56 AM 65.7 °F - 65.7 °F 100% 29.80 in 7.0 mi SSE 3.5 mph - N/A Rain Rain
1:15 AM 65.8 °F - 65.8 °F 100% 29.79 in 10.0 mi SSW 5.8 mph - N/A Rain Rain
1:16 AM 65.8 °F - 65.8 °F 100% 29.79 in 10.0 mi SSW 5.8 mph - N/A Rain Rain
1:35 AM 65.7 °F - 65.7 °F 100% 29.77 in 10.0 mi SSE 5.8 mph - N/A   Light Drizzle
1:58 AM 65.7 °F - 65.7 °F 100% 29.78 in 10.0 mi SSW 5.8 mph - N/A Rain Light Rain
2:15 AM 66.0 °F - 66.0 °F 100% 29.80 in 10.0 mi WNW 5.8 mph - N/A Rain Light Rain
2:35 AM 66.2 °F - 66.2 °F 100% 29.80 in 10.0 mi WNW 3.5 mph - N/A   Drizzle
2:36 AM 66.2 °F - 66.2 °F 100% 29.80 in 10.0 mi WNW 4.6 mph - N/A   Drizzle
2:55 AM 65.7 °F - 65.7 °F 100% 29.77 in 10.0 mi Calm Calm - N/A Rain Rain
2:56 AM 65.7 °F - 65.7 °F 100% 29.77 in 10.0 mi Calm Calm - N/A Rain Rain
3:19 AM 65.8 °F - 65.8 °F 100% 29.78 in 10.0 mi Calm Calm - N/A   Overcast
3:36 AM 65.7 °F - 65.7 °F 100% 29.78 in 10.0 mi Calm Calm - N/A   Mostly Cloudy
3:55 AM 65.5 °F - 65.5 °F 100% 29.78 in 10.0 mi Calm Calm - N/A   Scattered Clouds
4:15 AM 65.3 °F - 65.3 °F 100% 29.77 in 10.0 mi Calm Calm - N/A   Clear
4:16 AM 65.3 °F - 65.3 °F 100% 29.77 in 10.0 mi Calm Calm - N/A   Clear
4:35 AM 64.4 °F - 64.4 °F 100% 29.78 in 10.0 mi Calm Calm - N/A   Clear
4:40 AM 64.6 °F - 64.6 °F 100% 29.78 in 7.0 mi North 3.5 mph - N/A   Clear
4:57 AM 64.6 °F - 64.6 °F 100% 29.78 in 10.0 mi Calm Calm - N/A   Scattered Clouds
5:16 AM 64.6 °F - 64.6 °F 100% 29.78 in 10.0 mi North 3.5 mph - N/A   Mostly Cloudy
5:35 AM 64.6 °F - 64.6 °F 100% 29.79 in 10.0 mi Calm Calm - N/A   Scattered Clouds
5:36 AM 64.6 °F - 64.6 °F 100% 29.79 in 10.0 mi Calm Calm - N/A   Scattered Clouds
5:55 AM 64.8 °F - 64.8 °F 100% 29.79 in 10.0 mi Calm Calm - N/A   Mostly Cloudy
6:19 AM 64.4 °F - 64.4 °F 100% 29.80 in 10.0 mi Calm Calm - N/A   Mostly Cloudy
6:37 AM 63.7 °F - 63.7 °F 100% 29.80 in 7.0 mi SW 4.6 mph - N/A   Scattered Clouds
6:55 AM 64.0 °F - 64.0 °F 100% 29.79 in 5.0 mi Calm Calm - N/A   Scattered Clouds
6:56 AM 64.0 °F - 64.0 °F 100% 29.79 in 5.0 mi Calm Calm - N/A   Scattered Clouds
7:15 AM 64.4 °F - 64.4 °F 100% 29.80 in 7.0 mi Calm Calm - N/A   Mostly Cloudy
7:35 AM 64.9 °F - 64.9 °F 100% 29.80 in 7.0 mi SW 3.5 mph - N/A   Overcast
7:58 AM 65.3 °F - 65.3 °F 100% 29.80 in 7.0 mi SSW 5.8 mph - N/A   Mostly Cloudy
8:16 AM 66.2 °F - 66.2 °F 100% 29.80 in 7.0 mi Calm Calm - N/A   Mostly Cloudy
8:35 AM 66.4 °F - 66.4 °F 100% 29.80 in 10.0 mi SW 3.5 mph - N/A   Mostly Cloudy
8:36 AM 66.6 °F - 66.6 °F 100% 29.80 in 10.0 mi SW 3.5 mph - N/A   Mostly Cloudy
8:55 AM 67.3 °F - 67.3 °F 100% 29.81 in 10.0 mi WSW 3.5 mph - N/A   Mostly Cloudy
8:56 AM 67.3 °F - 67.3 °F 100% 29.81 in 10.0 mi WSW 3.5 mph - N/A   Mostly Cloudy
9:18 AM 68.2 °F - 68.2 °F 100% 29.81 in 10.0 mi WSW 3.5 mph - N/A   Overcast
9:37 AM 69.3 °F - 67.8 °F 95% 29.81 in 10.0 mi Calm Calm - N/A   Mostly Cloudy
9:55 AM 70.0 °F - 68.0 °F 93% 29.81 in 10.0 mi West 3.5 mph - N/A   Mostly Cloudy
10:15 AM 70.2 °F - 66.2 °F 87% 29.81 in 10.0 mi West 3.5 mph - N/A   Overcast
10:16 AM 70.2 °F - 65.8 °F 86% 29.81 in 10.0 mi Calm Calm - N/A   Overcast
10:35 AM 70.2 °F - 66.2 °F 87% 29.81 in 10.0 mi Calm Calm - N/A   Overcast
10:58 AM 70.2 °F - 66.4 °F 88% 29.81 in 10.0 mi West 3.5 mph - N/A   Overcast
11:16 AM 70.3 °F - 65.7 °F 85% 29.81 in 10.0 mi Calm Calm - N/A   Overcast
11:35 AM 69.6 °F - 68.4 °F 96% 29.82 in 5.0 mi North 6.9 mph - N/A Rain Rain
11:36 AM 69.4 °F - 68.5 °F 97% 29.82 in 5.0 mi North 5.8 mph - N/A Rain Rain
11:55 AM 68.9 °F - 68.9 °F 100% 29.82 in 3.0 mi North 6.9 mph - N/A   Light Drizzle
12:19 PM 69.1 °F - 69.1 °F 100% 29.82 in 3.0 mi NE 3.5 mph - N/A   Overcast
12:37 PM 70.3 °F - 68.4 °F 93% 29.82 in 10.0 mi Calm Calm - N/A   Overcast
12:55 PM 72.3 °F - 65.7 °F 79% 29.82 in 10.0 mi North 4.6 mph - N/A   Overcast
12:56 PM 72.3 °F - 65.5 °F 79% 29.82 in 10.0 mi North 3.5 mph - N/A   Overcast
1:15 PM 72.7 °F - 65.3 °F 78% 29.82 in 10.0 mi NW 4.6 mph - N/A   Overcast
1:16 PM 72.7 °F - 65.5 °F 78% 29.82 in 10.0 mi NW 3.5 mph - N/A   Overcast
1:35 PM 74.8 °F - 64.8 °F 71% 29.81 in 10.0 mi North 4.6 mph - N/A   Mostly Cloudy
1:40 PM 74.3 °F - 64.2 °F 71% 29.81 in 10.0 mi North 3.5 mph - N/A   Overcast
1:58 PM 76.5 °F - 63.7 °F 64% 29.80 in 10.0 mi Calm Calm - N/A   Mostly Cloudy
2:16 PM 75.7 °F - 64.2 °F 67% 29.80 in 10.0 mi North 4.6 mph - N/A   Mostly Cloudy
2:35 PM 77.0 °F - 63.0 °F 62% 29.80 in 10.0 mi NW 3.5 mph - N/A   Mostly Cloudy
2:36 PM 77.4 °F - 63.1 °F 61% 29.80 in 10.0 mi NW 3.5 mph - N/A   Mostly Cloudy
2:55 PM 78.1 °F - 63.3 °F 60% 29.80 in 10.0 mi North 8.1 mph - N/A   Mostly Cloudy
2:56 PM 77.9 °F - 63.3 °F 61% 29.80 in 10.0 mi NNW 6.9 mph - N/A   Mostly Cloudy
3:19 PM 78.6 °F - 61.9 °F 56% 29.80 in 10.0 mi North 5.8 mph - N/A   Scattered Clouds
3:37 PM 78.1 °F - 62.6 °F 59% 29.80 in 10.0 mi NNW 3.5 mph - N/A   Scattered Clouds
3:55 PM 77.7 °F - 62.2 °F 59% 29.80 in 10.0 mi North 8.1 mph - N/A   Scattered Clouds
4:15 PM 77.0 °F - 61.2 °F 58% 29.80 in 10.0 mi North 5.8 mph - N/A   Scattered Clouds
4:35 PM 80.1 °F 81.1 °F 60.8 °F 52% 29.79 in 10.0 mi NW 6.9 mph - N/A   Scattered Clouds
4:58 PM 78.6 °F - 60.8 °F 54% 29.80 in 10.0 mi North 5.8 mph - N/A   Scattered Clouds
5:35 PM 78.3 °F - 57.4 °F 49% 29.79 in 10.0 mi NNW 6.9 mph - N/A   Scattered Clouds
5:55 PM 79.5 °F - 64.4 °F 60% 29.79 in 10.0 mi West 10.4 mph - N/A   Mostly Cloudy
6:19 PM 78.1 °F - 64.2 °F 62% 29.80 in 10.0 mi WNW 11.5 mph - N/A   Mostly Cloudy
6:37 PM 78.3 °F - 63.9 °F 61% 29.79 in 10.0 mi NW 12.7 mph 17.3 mph N/A   Mostly Cloudy
6:55 PM 76.5 °F - 63.1 °F 63% 29.80 in 10.0 mi NW 11.5 mph - N/A   Scattered Clouds
6:56 PM 76.3 °F - 63.3 °F 64% 29.80 in 10.0 mi NW 10.4 mph - N/A   Scattered Clouds
7:15 PM 75.6 °F - 62.8 °F 64% 29.79 in 10.0 mi NNW 9.2 mph - N/A   Clear
7:35 PM 75.0 °F - 63.0 °F 66% 29.79 in 10.0 mi NNW 6.9 mph - N/A   Clear
7:40 PM 75.2 °F - 63.0 °F 66% 29.79 in 10.0 mi NNW 6.9 mph - N/A   Clear
7:58 PM 73.9 °F - 62.1 °F 66% 29.80 in 10.0 mi NW 6.9 mph - N/A   Clear
8:16 PM 72.9 °F - 62.1 °F 69% 29.79 in 10.0 mi NNW 4.6 mph - N/A   Clear
8:35 PM 71.4 °F - 62.6 °F 74% 29.80 in 10.0 mi NNW 3.5 mph - N/A   Clear
8:55 PM 69.6 °F - 63.0 °F 79% 29.80 in 10.0 mi NW 4.6 mph - N/A   Clear
9:18 PM 67.6 °F - 64.9 °F 91% 29.80 in 10.0 mi NW 4.6 mph - N/A   Clear
9:36 PM 66.4 °F - 65.3 °F 96% 29.80 in 10.0 mi NNW 3.5 mph - N/A   Clear
9:55 PM 66.0 °F - 64.6 °F 95% 29.81 in 10.0 mi NW 3.5 mph - N/A   Clear
10:15 PM 65.7 °F - 64.6 °F 96% 29.82 in 10.0 mi Calm Calm - N/A   Clear
10:16 PM 65.7 °F - 64.6 °F 96% 29.82 in 10.0 mi Calm Calm - N/A   Clear
10:39 PM 65.3 °F - 64.4 °F 97% 29.82 in 10.0 mi Calm Calm - N/A   Clear
10:57 PM 64.6 °F - 64.4 °F 99% 29.82 in 10.0 mi Calm Calm - N/A   Clear
11:15 PM 63.9 °F - 63.9 °F 100% 29.82 in 10.0 mi Calm Calm - N/A   Clear
11:35 PM 64.2 °F - 64.2 °F 100% 29.82 in 10.0 mi Calm Calm - N/A   Clear
11:55 PM 62.6 °F - 62.6 °F 100% 29.82 in 10.0 mi Calm Calm - N/A   Clear